Temp
61 61 61 61 61 60 60 61 61 61 61 61 62 61 61 61 61 63 64 75 76 77 76 86 86 85 83 77 82 80 63 62 67 69 70 73 65 71 80 80 84 84 81 82 86
60 61 61 60 60 60 60 60 60 61 61 61 61 61 61 61 61 66 77 79 78 76 82 80 78 81 73 74 74 70 60 65 77 81 72 72 75 70 73 75 75 78 83 86 86
60 60 60 60 60 60 60 60 60 60 61 61 61 61 61 60 61 74 76 79 76 77 84 83 82 79 71 72 72 72 65 74 81 82 79 77 72 74 74 72 76 74 78 79 78
59 59 60 59 59 59 59 60 60 60 60 60 60 60 61 62 60 79 77 76 76 82 82 79 77 68 65 67 76 65 76 79 81 84 80 75 72 69 72 72 79 81 81 79 77
58 59 59 59 59 59 59 59 59 59 59 59 60 61 59 61 69 81 77 76 79 81 79 77 72 70 66 71 74 70 76 80 82 79 76 78 71 65 70 76 81 81 80 77 76
58 58 58 58 58 58 58 58 58 58 58 59 60 60 60 59 88 84 84 81 85 80 79 79 77 79 74 73 69 78 79 79 79 75 79 72 69 75 70 73 79 79 77 77 77
57 57 57 58 58 58 58 57 57 57 58 60 62 66 68 68 88 85 88 82 85 86 82 86 86 79 77 74 81 81 70 76 76 74 75 76 68 70 77 80 78 76 76 77 77
57 57 57 57 57 58 58 57 57 58 59 62 63 66 62 85 88 88 88 86 88 88 89 91 89 79 72 79 79 73 68 58 72 78 80 75 59 71 77 76 73 76 76 74 73
57 56 57 57 57 57 57 56 57 59 61 62 59 59 65 87 84 92 92 89 89 89 89 97 83 73 77 67 62 64 56 61 68 77 78 72 63 72 76 75 73 73 74 71 69
57 56 56 56 56 56 55 56 60 61 63 71 76 64 73 78 88 93 93 93 87 84 82 78 72 65 64 59 52 59 60 64 67 74 76 70 66 71 75 74 73 72 71 70 68
57 56 56 56 56 55 53 59 64 61 68 69 73 73 82 89 93 89 93 88 85 78 66 72 61 56 64 68 71 71 67 66 72 78 73 71 67 70 73 74 71 71 69 68 67
56 56 56 56 56 56 51 60 74 75 66 80 81 81 86 88 82 88 93 78 75 66 72 66 59 70 76 76 74 72 67 67 72 79 72 69 65 69 70 70 73 69 68 67 65
55 55 55 55 55 56 64 73 84 81 63 74 81 81 83 84 81 82 86 80 73 68 69 63 70 79 77 73 72 69 65 66 71 75 72 70 61 63 68 72 72 68 69 67 65
55 55 55 55 59 64 68 83 85 80 54 68 76 81 84 84 77 91 90 81 74 69 71 68 77 77 74 73 73 63 75 76 72 68 56 68 49 58 60 63 67 70 64 66 66
54 55 55 53 51 60 75 82 82 72 41 77 79 90 86 78 80 83 90 82 71 72 70 68 72 72 71 73 76 69 77 73 72 61 57 59 53 56 61 55 60 67 67 67 65
54 55 55 59 51 62 73 78 73 52 45 71 81 78 75 78 80 84 82 84 82 74 75 73 82 76 75 80 79 80 72 69 65 58 47 59 55 52 53 56 57 60 70 68 64
54 54 52 62 62 74 77 68 50 45 72 70 73 77 74 73 76 78 74 70 64 57 59 69 73 78 82 72 74 70 58 48 45 46 46 60 56 54 59 61 63 64 68 68 67
53 52 57 65 70 75 69 56 42 62 66 77 75 76 71 74 73 75 72 65 70 67 59 57 56 72 81 72 67 64 60 49 42 43 51 63 55 59 64 66 66 69 66 66 63
52 62 67 70 74 73 59 45 50 61 71 70 71 66 67 75 73 72 69 68 72 70 58 56 60 78 81 81 73 66 61 65 55 60 53 52 55 60 67 66 65 67 63 61 63
51 58 68 80 77 68 53 49 58 69 71 71 60 66 60 66 67 67 64 74 73 76 72 64 55 73 79 80 77 68 71 55 52 43 41 51 51 51 63 64 66 66 61 62 63
51 58 72 80 73 60 48 55 65 74 75 68 64 63 65 64 65 65 65 70 77 76 74 70 59 64 72 65 64 63 61 60 57 53 44 43 47 65 66 68 64 63 63 63 67
54 53 75 76 56 58 55 64 64 72 73 69 70 67 64 65 62 63 64 68 76 76 69 68 59 53 63 74 76 70 63 60 47 51 51 46 45 69 68 69 68 69 69 69 71
48 57 74 72 51 54 60 63 69 67 66 62 58 68 68 62 56 63 67 76 72 69 67 66 54 48 53 63 70 65 68 63 56 51 48 44 48 68 68 67 67 69 70 70 70
52 52 61 63 63 54 52 57 59 70 66 62 56 60 55 58 64 60 65 74 75 73 66 67 56 54 51 55 62 61 64 64 58 45 49 51 55 60 65 64 70 67 71 70 70
55 52 54 48 52 52 55 57 58 58 66 67 61 55 48 45 55 56 57 65 72 68 64 56 52 58 62 67 68 64 64 65 59 59 50 56 57 58 61 65 67 69 71 70 66
50 48 52 50 53 53 53 54 58 60 59 58 51 52 53 47 48 48 51 51 58 63 54 57 49 56 58 68 68 64 65 64 65 66 61 58 60 64 67 66 64 69 71 70 68
55 55 48 49 50 51 52 55 56 59 61 62 59 52 52 57 54 53 54 54 52 56 53 52 48 46 47 63 62 55 63 64 66 68 64 57 58 69 67 66 64 65 69 69 68
MSLP
1019.21 1018.90 1018.40 1017.86 1017.45 1017.06 1016.59 1016.14 1015.67 1015.34 1015.01 1014.53 1014.10 1013.76 1013.38 1013.01 1012.29 1011.77 1010.62 1008.19 1007.72 1007.32 1007.62 1007.34 1007.03 1006.82 1006.77 1006.73 1006.44 1006.27 1007.05 1006.91 1005.98 1006.40 1006.55 1007.89 1009.04 1010.44 1009.55 1009.18 1008.61 1008.31 1009.55 1010.44 1010.42
1019.42 1018.92 1018.30 1017.88 1017.43 1016.89 1016.46 1016.03 1015.50 1015.17 1014.85 1014.43 1013.98 1013.65 1013.36 1013.04 1012.26 1010.16 1007.02 1006.84 1007.04 1007.19 1007.34 1007.32 1007.17 1006.71 1006.97 1006.50 1006.40 1006.43 1006.52 1006.00 1004.95 1004.75 1005.51 1006.92 1008.61 1010.95 1011.42 1010.65 1010.88 1009.73 1009.94 1010.34 1010.86
1019.32 1018.79 1018.32 1017.86 1017.27 1016.68 1016.22 1015.77 1015.28 1014.89 1014.51 1014.21 1013.79 1013.43 1013.20 1012.97 1011.85 1007.38 1005.45 1005.78 1006.55 1006.92 1007.11 1007.06 1006.92 1007.08 1006.90 1006.25 1006.14 1005.78 1005.83 1005.33 1004.10 1004.27 1005.22 1006.94 1009.00 1010.51 1009.78 1009.46 1010.37 1010.13 1010.28 1011.12 1011.63
1019.18 1018.73 1018.17 1017.60 1016.98 1016.43 1015.89 1015.41 1014.85 1014.56 1014.26 1013.97 1013.59 1013.27 1013.02 1012.73 1009.97 1005.95 1005.41 1005.52 1006.34 1006.82 1007.03 1006.93 1006.86 1006.94 1006.55 1006.33 1005.43 1005.56 1004.91 1004.50 1003.83 1003.67 1004.83 1006.64 1008.69 1009.67 1008.42 1008.95 1010.02 1009.85 1010.84 1011.50 1012.15
1019.23 1018.68 1018.12 1017.44 1016.78 1016.15 1015.63 1015.06 1014.47 1014.21 1014.01 1013.73 1013.30 1012.98 1012.74 1011.76 1008.01 1005.64 1005.69 1006.05 1006.52 1006.79 1006.76 1006.80 1006.68 1006.42 1006.13 1005.53 1005.10 1004.95 1004.34 1003.77 1003.30 1003.59 1005.06 1006.41 1007.37 1007.95 1008.82 1008.38 1009.65 1010.50 1011.11 1012.01 1012.70
1019.20 1018.64 1017.97 1017.20 1016.47 1015.86 1015.27 1014.67 1014.11 1013.80 1013.51 1013.27 1012.93 1012.83 1012.42 1010.14 1005.23 1004.95 1005.51 1006.08 1005.94 1006.29 1006.23 1006.16 1005.86 1005.27 1005.24 1005.00 1004.94 1003.95 1003.51 1003.42 1003.09 1003.31 1004.46 1006.10 1007.71 1007.35 1009.48 1009.41 1010.16 1010.83 1011.66 1012.18 1012.59
1019.09 1018.53 1017.79 1016.95 1016.18 1015.42 1014.79 1014.18 1013.63 1013.23 1012.89 1012.69 1012.48 1012.23 1010.97 1007.44 1004.95 1005.20 1005.00 1005.53 1005.54 1005.59 1005.63 1005.04 1004.78 1005.01 1004.61 1004.56 1003.45 1003.36 1003.39 1003.27 1003.21 1003.27 1003.83 1005.67 1007.90 1008.29 1008.90 1009.19 1010.36 1011.00 1011.79 1012.31 1012.86
1018.92 1018.32 1017.60 1016.72 1015.86 1014.99 1014.23 1013.63 1012.98 1012.56 1012.33 1012.11 1012.09 1011.54 1009.46 1005.23 1004.40 1004.87 1004.92 1004.88 1004.92 1004.90 1004.90 1004.37 1004.14 1004.25 1004.47 1004.17 1003.73 1003.80 1003.22 1003.57 1003.33 1003.22 1003.50 1004.51 1007.42 1008.18 1008.51 1009.23 1010.28 1010.74 1011.95 1012.92 1013.46
1018.72 1018.02 1017.23 1016.34 1015.52 1014.60 1013.60 1012.78 1012.09 1011.75 1011.88 1011.91 1011.90 1011.01 1007.74 1004.21 1004.24 1003.73 1003.90 1004.18 1004.37 1004.42 1004.32 1004.03 1004.32 1004.54 1004.71 1004.98 1004.78 1003.86 1003.91 1003.75 1003.29 1002.90 1003.29 1004.25 1006.60 1007.82 1008.41 1009.15 1010.18 1011.04 1012.03 1013.11 1014.03
1018.48 1017.67 1016.82 1015.93 1015.15 1014.33 1013.13 1011.50 1011.10 1011.29 1011.44 1011.36 1010.56 1010.12 1006.56 1004.00 1003.21 1003.21 1003.22 1003.48 1003.85 1004.24 1004.52 1004.50 1004.94 1005.25 1005.32 1005.48 1005.29 1004.47 1003.98 1003.44 1002.95 1002.74 1003.15 1004.34 1006.17 1007.68 1008.20 1008.79 1009.65 1010.73 1011.91 1013.00 1014.22
1018.35 1017.44 1016.44 1015.43 1014.66 1014.27 1013.25 1011.69 1011.28 1011.10 1010.04 1008.84 1007.74 1006.48 1004.15 1002.99 1002.81 1003.06 1003.07 1003.42 1003.71 1004.20 1004.81 1004.84 1005.51 1005.54 1005.33 1004.80 1004.33 1003.80 1003.60 1003.32 1001.90 1001.38 1002.63 1004.22 1006.30 1007.38 1007.73 1008.56 1009.35 1010.41 1011.72 1013.00 1014.10
1018.25 1017.31 1016.26 1015.03 1013.95 1013.61 1013.77 1012.23 1009.50 1008.16 1007.07 1006.33 1005.44 1004.85 1003.70 1003.23 1003.02 1002.60 1002.86 1003.60 1003.91 1004.41 1004.66 1005.06 1005.01 1004.54 1004.18 1003.86 1003.61 1003.30 1003.11 1002.63 1001.80 1001.02 1002.21 1003.87 1006.06 1007.21 1007.60 1007.83 1008.44 1010.02 1011.52 1012.98 1014.46
1018.08 1017.12 1016.17 1014.67 1013.34 1012.45 1011.94 1010.02 1007.94 1007.18 1007.00 1004.09 1002.68 1002.46 1002.42 1002.70 1002.20 1001.90 1002.45 1003.15 1003.85 1004.42 1004.52 1004.60 1003.86 1003.59 1003.34 1002.97 1002.80 1002.54 1002.50 1002.06 1002.44 1002.36 1002.83 1004.10 1006.62 1007.23 1007.98 1007.89 1008.15 1010.14 1011.45 1012.64 1013.69
1017.98 1016.99 1016.32 1014.65 1012.89 1012.28 1010.48 1008.34 1007.45 1007.43 1006.90 1002.90 1001.22 1000.47 1001.48 1001.97 1001.58 1001.16 1001.54 1002.67 1003.43 1003.90 1004.09 1003.73 1002.96 1002.74 1002.46 1002.26 1001.93 1001.88 1001.58 1001.46 1002.20 1003.03 1003.69 1004.13 1006.72 1007.82 1008.04 1008.71 1008.78 1009.77 1012.01 1012.84 1013.12
1017.50 1016.87 1016.11 1015.98 1014.85 1012.65 1009.86 1008.64 1008.11 1007.92 1006.28 1000.77 999.91 999.18 1000.12 1001.18 1000.53 1000.88 1001.05 1001.92 1002.75 1003.40 1003.69 1002.95 1002.15 1001.81 1001.47 1001.04 1001.10 1001.27 1001.29 1001.89 1002.38 1003.65 1004.44 1005.15 1006.49 1006.72 1008.76 1010.61 1010.99 1011.92 1011.29 1012.11 1012.55
1016.89 1016.17 1015.92 1014.36 1014.87 1011.72 1010.01 1009.08 1008.43 1008.33 1005.30 1001.24 999.66 999.62 1000.19 1000.75 1000.95 1000.78 1001.28 1001.57 1002.17 1002.97 1002.90 1002.49 1001.46 1001.06 1000.48 1000.38 1000.60 1000.95 1001.69 1002.32 1002.85 1003.95 1005.29 1005.54 1006.88 1007.46 1008.52 1009.49 1010.18 1010.95 1010.25 1011.74 1012.62
1016.23 1014.88 1015.50 1014.35 1012.23 1010.31 1009.85 1009.36 1009.26 1007.56 1004.07 1001.36 1000.83 1000.24 1000.03 1000.39 1000.74 1000.74 1001.25 1001.75 1002.27 1002.92 1002.99 1002.52 1001.45 1000.48 1000.10 1000.14 1000.27 1000.96 1002.26 1003.55 1004.32 1004.84 1005.65 1005.92 1006.50 1007.63 1007.63 1008.41 1008.03 1008.57 1010.10 1011.83 1012.29
1015.52 1013.68 1012.64 1012.26 1011.10 1010.30 1010.27 1010.14 1009.31 1006.72 1004.55 1002.64 1001.78 1000.76 1000.58 1000.08 1000.27 1000.63 1001.13 1001.70 1001.93 1002.55 1003.10 1002.80 1001.73 1000.47 999.65 999.46 1000.20 1001.01 1001.99 1003.57 1004.62 1005.52 1006.18 1005.81 1006.87 1006.92 1007.09 1007.47 1007.55 1008.11 1010.42 1011.54 1012.85
1014.87 1012.88 1011.77 1010.55 1010.40 1010.21 1010.76 1010.36 1008.45 1006.76 1005.12 1004.15 1002.95 1002.05 1001.07 1000.40 1000.05 1000.25 1000.56 1000.95 1001.20 1001.82 1002.75 1002.54 1001.49 1000.07 999.37 999.21 999.82 1000.56 1001.24 1002.13 1003.96 1004.89 1006.22 1006.74 1007.64 1007.16 1007.08 1007.21 1008.09 1008.69 1010.27 1011.47 1012.76
1015.88 1013.51 1010.73 1009.24 1009.63 1010.27 1010.86 1009.93 1008.35 1007.16 1006.04 1005.32 1004.56 1003.90 1002.74 1001.71 1001.78 1001.84 1001.15 1000.00 1000.28 1000.63 1001.30 1001.86 1002.10 1000.25 999.46 998.80 999.12 999.97 1000.49 1002.16 1003.87 1005.55 1006.32 1006.79 1007.08 1006.98 1006.51 1006.97 1007.26 1008.65 1010.27 1011.27 1012.20
1015.73 1013.29 1009.95 1009.33 1009.87 1010.53 1010.73 1009.40 1007.93 1006.66 1005.83 1005.38 1004.79 1004.26 1003.67 1002.86 1002.77 1002.88 1002.02 1001.12 999.59 1000.03 1000.43 1001.22 1002.04 1000.64 1000.11 999.13 999.37 999.97 1000.79 1001.99 1003.69 1005.14 1006.23 1007.04 1007.49 1005.56 1005.75 1006.01 1006.73 1007.58 1008.83 1009.87 1010.64
1016.43 1013.47 1009.50 1009.28 1010.47 1010.23 1009.89 1008.95 1007.60 1006.53 1006.08 1005.58 1005.01 1004.88 1004.39 1003.61 1003.40 1003.17 1002.49 1001.72 1000.53 1001.01 1000.82 1000.45 1001.15 1001.47 1000.46 999.62 999.64 999.84 1000.66 1001.78 1003.96 1005.39 1005.75 1006.44 1006.62 1005.02 1004.68 1004.92 1005.29 1006.63 1007.84 1008.83 1009.18
1017.92 1013.80 1009.49 1009.53 1010.60 1010.78 1010.19 1009.43 1008.18 1007.41 1007.25 1007.41 1007.37 1006.25 1005.25 1004.84 1004.49 1003.65 1002.76 1001.49 1001.16 1002.16 1001.94 1000.20 1000.77 1001.48 1001.00 1000.66 999.62 1000.01 1000.41 1001.62 1002.89 1004.57 1005.78 1006.39 1005.80 1004.70 1004.39 1004.80 1004.78 1005.81 1007.06 1008.21 1008.87
1018.21 1014.75 1011.80 1011.25 1011.61 1012.23 1011.80 1010.38 1009.30 1008.33 1008.28 1008.51 1008.77 1008.60 1007.81 1006.40 1005.23 1004.61 1003.47 1001.99 1001.55 1002.32 1002.20 1000.55 1000.58 1000.94 1000.98 1000.83 1000.76 1000.56 1000.72 1001.49 1002.77 1004.33 1005.31 1005.32 1005.22 1004.85 1004.36 1004.67 1004.74 1005.19 1006.46 1007.53 1008.54
1017.98 1016.44 1016.04 1014.31 1013.30 1013.40 1012.66 1011.44 1010.14 1008.99 1008.88 1009.11 1009.45 1010.82 1011.05 1010.01 1007.74 1006.56 1005.86 1004.09 1002.33 1003.62 1003.45 1002.96 1001.77 1001.08 1000.66 1000.35 1000.38 1000.59 1000.90 1001.30 1002.44 1003.17 1004.09 1004.55 1004.41 1004.38 1004.41 1004.36 1004.48 1004.85 1005.99 1007.16 1008.32
1019.02 1018.69 1017.84 1016.80 1015.10 1014.22 1012.91 1011.77 1010.63 1009.83 1009.99 1010.04 1010.71 1011.07 1011.08 1011.19 1011.57 1010.30 1009.04 1007.84 1005.88 1004.86 1004.62 1004.05 1003.65 1002.35 1001.28 1000.69 1000.45 1000.56 1000.61 1001.00 1001.43 1002.68 1003.71 1004.36 1004.30 1003.65 1004.15 1004.29 1004.49 1004.68 1005.62 1006.88 1008.18
1020.39 1019.90 1019.16 1017.54 1016.00 1014.81 1013.72 1012.80 1011.70 1011.16 1010.73 1010.88 1010.83 1010.77 1010.15 1009.73 1010.26 1010.69 1009.27 1008.36 1008.11 1006.63 1005.51 1005.17 1005.31 1004.94 1003.17 1001.63 1001.03 1000.31 1000.23 1000.75 1001.26 1001.40 1002.52 1003.25 1004.09 1004.06 1005.04 1005.39 1004.95 1005.23 1005.86 1006.73 1007.97
Wind_Speed
19 18 18 19 18 18 18 18 17 16 16 16 16 14 14 13 16 4 9 13 8 13 3 7 9 8 8 7 7 6 3 8 14 7 4 14 8 4 7 10 7 11 19 12 10
18 19 19 20 19 18 19 18 18 17 16 16 16 13 12 11 5 11 14 15 8 9 3 6 10 10 5 7 5 4 2 8 12 14 6 10 7 10 4 16 13 15 12 11 4
19 20 20 20 20 19 20 19 18 18 17 17 16 13 11 8 5 9 3 24 12 9 6 7 10 8 8 7 8 9 8 10 18 11 7 16 20 15 18 19 14 15 11 15 19
21 21 22 22 22 21 21 21 20 20 20 18 15 12 9 4 2 1 4 11 10 6 6 6 8 6 5 8 10 6 12 12 13 10 7 14 15 9 17 13 5 9 13 16 15
22 22 23 22 22 22 22 22 21 21 20 17 14 9 4 3 12 6 9 8 7 5 8 9 7 7 8 8 8 7 9 10 11 7 12 14 5 11 16 16 12 13 11 14 14
21 23 24 24 23 23 22 21 20 21 20 16 10 3 2 7 9 13 10 6 8 7 8 9 10 11 9 9 6 9 11 11 8 5 12 18 9 9 9 11 16 14 10 12 17
21 22 24 24 24 24 23 22 21 21 19 13 8 5 5 19 1 7 12 8 8 9 10 11 14 6 7 10 12 10 4 7 7 4 5 25 12 10 15 18 18 14 11 9 12
22 23 25 25 25 26 25 24 23 22 15 9 4 4 9 8 12 14 11 9 11 9 13 12 10 6 3 9 11 9 2 2 9 7 8 10 8 20 18 16 14 15 11 11 13
23 24 25 27 26 27 27 28 25 18 9 3 4 2 11 10 6 13 11 10 13 12 8 11 6 3 8 6 7 5 4 7 10 10 7 8 12 18 18 17 16 15 13 13 13
25 25 25 26 26 25 28 28 10 5 5 7 8 4 8 8 8 8 7 9 5 5 7 4 1 3 6 1 7 7 8 10 11 9 9 8 13 20 20 19 17 16 14 15 13
26 26 27 28 27 22 16 6 3 1 5 8 8 8 15 13 5 7 8 7 6 5 6 8 3 7 13 12 14 9 6 12 10 9 9 5 12 19 19 16 17 16 17 16 16
28 27 28 30 30 24 4 4 9 9 12 13 21 22 25 18 16 12 12 8 6 7 8 6 9 13 13 14 15 13 11 14 5 15 9 8 11 13 10 9 18 18 16 17 16
27 27 28 32 32 7 5 13 15 8 5 14 22 19 18 11 16 13 11 9 8 9 11 9 11 16 16 14 13 10 9 8 7 6 5 7 4 7 7 5 5 9 14 19 20
27 27 25 31 6 6 6 11 12 8 4 10 9 7 16 11 15 11 15 10 8 11 13 10 14 17 13 12 9 9 8 12 3 5 7 7 5 9 7 5 5 5 12 17 20
28 26 25 13 8 5 8 13 11 5 5 5 8 5 11 13 3 14 8 10 12 13 8 14 13 11 14 6 6 8 8 8 8 4 6 2 3 6 10 1 6 10 18 20 19
31 28 22 0 4 11 14 13 5 2 7 6 5 8 9 12 19 16 11 8 11 13 15 16 16 8 9 11 9 8 7 8 6 5 2 11 5 2 9 16 19 35 14 21 18
32 34 11 6 6 9 11 6 3 3 9 7 3 4 10 10 17 16 13 11 8 6 10 15 17 13 14 6 5 5 4 3 5 3 6 3 3 3 3 18 21 22 12 18 18
35 32 5 7 7 8 4 3 2 10 13 21 19 23 10 12 12 17 14 12 10 9 6 10 13 15 13 7 12 9 10 7 7 2 3 4 4 2 13 9 6 12 10 12 10
30 4 4 5 12 2 3 1 5 4 9 18 25 17 19 13 8 13 16 15 12 13 10 4 11 13 15 8 6 10 9 9 2 2 4 4 5 8 5 11 12 9 17 21 17
8 5 5 7 3 3 2 5 6 13 21 17 17 17 20 18 11 21 7 17 15 14 12 11 10 20 15 9 9 7 5 1 4 4 5 3 4 5 8 11 10 17 20 19 15
2 4 2 8 3 0 3 6 13 17 17 17 17 17 18 17 11 12 10 19 15 14 13 15 8 20 5 1 8 5 2 2 4 5 6 4 5 8 11 7 13 19 21 20 15
6 4 4 4 1 3 5 8 11 15 18 17 16 13 12 10 11 12 15 11 18 13 16 12 8 7 11 13 7 7 6 8 8 4 2 6 7 4 11 11 9 20 21 18 20
6 5 7 4 3 4 9 15 16 13 11 10 9 20 11 11 8 8 14 20 8 11 19 8 5 4 2 7 8 6 6 2 6 5 4 6 5 4 4 5 6 23 20 17 19
4 5 5 5 3 6 8 6 13 15 7 5 10 24 16 13 13 11 15 19 6 14 18 14 7 11 12 9 7 4 5 1 5 6 7 7 6 5 5 4 6 11 19 18 16
2 3 4 5 8 14 11 10 14 15 7 9 6 11 10 8 15 11 16 15 13 10 15 5 5 6 7 11 7 8 7 6 3 2 6 5 9 8 5 5 5 14 18 18 13
4 5 6 9 9 11 9 8 14 13 11 9 4 11 8 6 8 17 7 5 7 4 3 7 7 6 6 8 9 8 10 7 7 6 3 8 6 6 8 2 1 8 19 16 20
5 4 3 7 8 8 7 14 17 14 8 15 12 3 8 14 11 18 10 9 14 19 4 2 4 8 6 5 5 14 12 12 8 8 9 6 9 11 5 4 4 4 14 17 20
Wind_Direction
358 353 350 348 345 342 339 336 334 329 323 319 320 321 320 318 305 206 236 225 198 237 249 267 294 253 254 256 270 298 315 275 278 304 209 136 129 281 83 69 89 103 120 146 177
354 351 350 345 340 339 336 332 330 325 319 318 318 320 320 322 280 248 227 225 187 173 221 248 269 253 243 262 257 183 246 256 270 282 243 121 111 113 108 71 89 105 129 159 99
353 350 346 342 338 336 332 329 327 323 319 317 317 319 319 314 288 242 342 212 176 174 240 264 281 289 241 230 247 249 233 262 275 297 119 142 124 141 150 124 134 138 150 92 86
353 347 345 340 336 333 330 325 324 321 317 314 314 313 317 259 285 24 82 127 149 199 229 248 265 274 254 240 246 214 243 242 266 281 76 149 137 126 124 133 162 119 107 101 94
349 345 340 337 333 330 326 321 319 316 313 311 310 310 289 235 252 167 141 141 151 181 208 220 253 259 254 249 258 239 243 245 261 270 110 127 101 128 137 134 142 117 123 123 123
346 341 338 334 330 326 321 315 313 310 310 308 303 296 223 255 258 144 154 159 186 189 218 222 240 236 253 259 236 253 218 245 268 237 113 113 135 100 183 178 126 142 153 141 132
343 338 335 332 328 324 319 314 311 306 307 302 285 229 259 241 272 162 164 181 224 195 231 241 240 247 282 291 261 266 223 247 268 224 155 135 102 109 149 152 154 142 141 133 112
340 335 333 330 326 322 317 314 307 302 297 293 196 216 253 260 252 249 225 179 208 230 241 259 285 253 302 303 317 273 294 258 258 198 219 133 138 154 155 151 142 134 130 111 99
338 333 330 328 326 322 317 312 300 287 258 171 164 228 267 276 200 238 228 203 203 222 252 261 10 324 313 293 317 267 218 237 263 205 173 151 128 157 156 154 152 144 146 114 103
336 332 329 325 324 324 320 303 281 305 210 194 262 278 259 242 198 219 213 227 185 205 240 238 281 241 296 268 239 233 213 241 234 217 182 175 140 163 167 163 161 154 142 132 124
334 331 328 324 321 326 339 349 357 337 254 211 192 239 295 228 247 191 215 218 231 194 205 232 176 221 231 237 244 260 263 254 276 179 151 155 133 169 175 167 163 164 148 145 137
331 330 328 322 318 320 283 271 291 248 295 232 243 235 256 273 265 197 191 193 240 214 218 264 221 238 238 238 241 251 260 273 294 130 112 186 152 166 179 198 169 161 152 145 134
330 330 329 322 319 306 227 264 274 327 285 278 234 232 230 231 253 190 179 194 212 230 244 204 239 224 241 254 256 250 241 266 193 174 184 132 92 134 199 219 165 162 156 141 145
329 328 332 329 328 340 278 329 347 0 303 271 191 234 208 227 267 238 185 176 217 236 230 247 247 248 243 242 243 260 249 262 255 170 186 163 219 198 192 167 222 185 153 151 146
327 328 326 319 305 296 298 328 309 28 335 323 147 135 165 193 163 215 218 190 208 228 236 251 248 255 251 225 250 237 289 271 256 105 73 259 120 224 153 65 356 305 184 166 154
324 324 332 329 198 253 292 287 339 346 254 284 124 165 166 196 226 252 207 213 203 233 264 259 270 263 238 253 226 233 248 290 279 123 103 241 166 247 172 147 146 199 185 161 161
325 316 312 277 237 339 314 344 9 230 311 263 31 212 191 202 214 238 190 212 216 194 252 277 272 278 266 232 262 234 163 306 348 353 220 342 56 298 201 175 187 194 183 159 151
327 312 219 212 234 272 344 11 253 273 275 323 326 333 296 190 210 213 231 210 220 205 255 228 272 260 261 173 205 225 162 164 199 194 294 359 325 305 202 256 299 200 119 123 129
322 311 237 237 225 240 33 252 241 249 296 326 326 316 321 318 200 198 211 224 206 185 211 248 259 263 228 214 215 269 199 198 217 213 155 201 54 328 213 213 225 200 129 153 174
320 296 270 135 166 99 86 257 291 304 294 293 298 308 308 307 346 359 302 219 216 194 186 235 263 276 282 207 242 176 178 263 346 204 234 143 130 183 233 226 198 182 156 166 180
240 317 231 119 115 194 217 254 291 290 291 301 297 287 292 305 335 331 295 293 205 212 192 213 168 270 302 273 197 287 191 84 122 147 157 138 250 201 222 153 156 158 161 172 173
327 297 189 137 333 238 231 257 291 319 331 316 297 287 298 292 295 301 309 292 308 306 257 198 171 215 241 276 272 196 221 160 123 253 57 130 244 265 134 182 166 154 160 165 158
306 271 275 154 278 331 357 345 333 352 323 1 319 318 304 295 308 284 289 292 301 322 327 211 213 204 277 304 304 253 249 154 112 81 165 127 253 183 6 88 129 143 159 163 152
291 312 346 339 40 19 358 313 333 325 315 30 334 302 354 321 294 290 286 287 344 320 345 286 181 174 202 197 215 232 295 22 139 123 181 192 173 165 82 357 156 136 156 160 159
278 348 14 331 333 323 304 286 296 302 332 13 340 28 28 311 326 348 356 331 351 350 331 61 249 179 188 191 212 211 258 262 121 232 124 273 191 185 158 211 164 159 155 157 147
23 356 351 297 298 315 298 316 329 356 11 338 59 346 357 356 325 310 339 317 304 312 2 4 311 297 209 205 220 223 188 235 254 130 189 100 34 122 193 217 342 138 153 155 146
341 345 268 288 294 294 334 338 328 348 6 355 337 275 305 294 189 255 212 243 253 279 269 48 54 13 296 237 251 259 196 202 226 224 163 176 185 125 185 124 81 86 151 146 142